Location: White Plains
(41.0340°N, 73.7629°W)
Time: 21:04:03
(UTC-05:00)

Hubble Space Telescope - Visible Passes

Search period start: 18 February 2020 00:00
Search period end: 28 February 2020 00:00
Orbit: 536 x 540 km, 28.5° (Epoch: 18 February)

Date Brightness Start Highest point End Pass type
(mag) Time Alt. Az. Time Alt. Az. Time Alt. Az.
22 Feb 3.2 18:22:26 10° S 18:23:31 11° SSE 18:24:37 10° SSE visible
22 Feb 3.5 20:01:40 10° SW 20:02:00 11° SSW 20:02:00 11° SSW visible
23 Feb 3.2 18:11:08 10° SSW 18:12:45 12° S 18:14:22 10° SSE visible
23 Feb 3.3 19:50:58 10° SW 19:52:03 13° SSW 19:52:03 13° SSW visible
24 Feb 3.2 19:40:21 10° SW 19:42:06 13° S 19:42:06 13° S visible
25 Feb 3.1 19:29:48 10° SW 19:31:38 13° S 19:32:09 12° S visible
26 Feb 3.3 19:19:25 10° SSW 19:20:51 12° S 19:22:14 10° S visible
27 Feb 3.4 19:09:23 10° SSW 19:10:05 10° SSW 19:10:46 10° S visible
